Find Starlink 4386

NORAD ID: 53649 Int'l Des: 2022-105 Owner: SPXS Country: US Constellation: starlink operational
LEOCIRCULARRETROGRADESSO

現在のビュー

3D地球を読み込み中...

About Starlink 4386

Starlink 4386 (NORAD 53649) is a starlink constellation satellite (v1.5) launched Aug 31, 2022 by SPXS of US. It operates in LEO, CIRCULAR, RETROGRADE, SSO orbit with a mass of 300.00 kg.

次回通過

Passes for default location (London). Set your location on the main map for personalized predictions.

高度履歴

Loading altitude history...

軌道要素

1 53649U 22105B 26265.82718049 .00466129 11100-3 52291-3 0 9993
2 53649 97.5775 158.6754 0003784 164.6249 195.5149 16.09396526223805
Epoch: Sep 22, 2026 • Age: 4 hours

現在のステータス

高度 248.3 km
遠地点 / 近地点 N/A
速度 7.76 km/s
衛星直下点 4.33°N, 15.87°W
打ち上げ日 Aug 31, 2022
運用期間 4 years
タイプ internet

技術仕様

分類 Payload
質量 300.00 kg
乾燥質量 290.00 kg
長さ 0.20 m
スパン 9.00 m
形状 ? Box + pan
製造者 SPXS
バスタイプ Starlink
フェーズステータス In Orbit
所有者/国 SPXS/US

Most Searched